IRIDIUM 114

Last updated on Fri Sep 11 2026 00:03:06 GMT+0000 (Coordinated Universal Time)

1 41923U 17003G 26253.47312769 .00000031 00000+0 38834-5 0 9991 2 41923 86.3933 52.7784 0002254 91.0662 269.0792 14.34217626505475
UTC large
Height (km)
Speed (km/s)
/
Latitude / Longitude
Inclination (degrees)
Orbital Period (minutes)
Azimuth
Elevation
Range (km)
Doppler Factor

Next 0 passes for location: London (51.5072 / 0.1276)

No passes found over London.
IRIDIUM 114